Regional Weather Roundup
Issued by NWS

Home | Current Version | Previous Version | Text Only | Print | Product List | Glossary On
Versions: 1 2 3 4 5 6 7 8 9 10 11 12 13 14 15 16 17 18 19 20 21 22 23 24 25 26 27 28 29 30 31 32 33 34 35 36 37 38 39 40 41 42 43 44 45 46 47 48 49 50
000
ASUS46 KPQR 230610
RWROR

OREGON REGIONAL WEATHER ROUNDUP
NATIONAL WEATHER SERVICE PORTLAND OR
1100 PM PDT TUE JUL 22 2014

NOTE: "FAIR" INDICATES FEW OR NO CLOUDS BELOW 12,000 FEET WITH
NO SIGNIFICANT WEATHER AND/OR OBSTRUCTIONS TO VISIBILITY.

ORZ001>013-230700-
NORTHWEST OREGON


CITY           SKY/WX    TMP DP  RH WIND       PRES   REMARKS
ASTORIA        CLOUDY    61  54  77 SW3       30.02S
6HR MIN TEMP:  61; 6HR MAX TEMP:  69;

NEWPORT        CLOUDY    55  54  94 CALM      30.08F
PORTLAND       MOCLDY    68  64  87 E5        30.00S
6HR MIN TEMP:  68; 6HR MAX TEMP:  74;

VANCOUVER WA   CLOUDY    69  62  78 E5        30.00S
6HR MIN TEMP:  68; 6HR MAX TEMP:  74;

SCAPPOOSE      CLOUDY    67  61  81 CALM      30.00S
6HR MIN TEMP:  66; 6HR MAX TEMP:  78;

HILLSBORO      CLOUDY    68  60  75 N3        30.00F
6HR MIN TEMP:  68; 6HR MAX TEMP:  78;

AURORA         MOCLDY    65  62  90 CALM      30.00F
6HR MIN TEMP:  65; 6HR MAX TEMP:  72; 6HR PCP: TRACE;

MCMINNVILLE    CLOUDY    67  54  63 SW5       30.00F
6HR MIN TEMP:  67; 6HR MAX TEMP:  78;

SALEM          MOCLDY    68  53  58 W8        29.99S
6HR MIN TEMP:  68; 6HR MAX TEMP:  76;

CORVALLIS      MOCLDY    63  50  63 W16       30.02R
EUGENE         MOCLDY    66  48  52 SW12      30.04R
6HR MIN TEMP:  66; 6HR MAX TEMP:  81;

$$

ORZ021-028-230700-
SOUTHWEST OREGON


CITY           SKY/WX    TMP DP  RH WIND       PRES   REMARKS
NORTH BEND     CLOUDY    57  57 100 S3        30.09R
6HR MIN TEMP:  55; 6HR MAX TEMP:  64;

BROOKINGS      CLOUDY    57  56  97 S3        30.12S FOG
ROSEBURG       MOCLDY    70  54  56 N5        30.03R
6HR MIN TEMP:  70; 6HR MAX TEMP:  79; 6HR PCP: TRACE;

SEXTON SUMMIT  MOCLDY    58  46  64 SW6       30.12R
6HR MIN TEMP:  58; 6HR MAX TEMP:  74; 6HR PCP:  0.01;

MEDFORD        CLEAR     68  62  81 CALM      30.03R
6HR MIN TEMP:  68; 6HR MAX TEMP:  84; 6HR PCP: TRACE;

$$

ORZ009-041-230700-
COLUMBIA GORGE


CITY           SKY/WX    TMP DP  RH WIND       PRES   REMARKS
TROUTDALE      MOCLDY    66  63  90 NE3       29.99S
6HR MIN TEMP:  66; 6HR MAX TEMP:  71; 6HR PCP:  0.01;

THE DALLES     CLOUDY    68  65  90 W5        30.01R
6HR MIN TEMP:  68; 6HR MAX TEMP:  81; 6HR PCP:  0.10;

$$

ORZ029>031-042>050-061>064-230700-
EASTERN OREGON


CITY           SKY/WX    TMP DP  RH WIND       PRES   REMARKS
REDMOND        MOCLDY    60  53  77 E6        30.07S
6HR MIN TEMP:  60; 6HR MAX TEMP:  75; 6HR PCP:  0.01;

BEND           MOCLDY    59  54  82 N5        30.09F
KLAMATH FALLS  MOCLDY    63  48  58 SE6       30.11R
6HR MIN TEMP:  61; 6HR MAX TEMP:  84; 6HR PCP: TRACE;

LAKEVIEW       PTCLDY    59  43  55 SE8       30.18R
HERMISTON      CLOUDY    72  62  71 CALM      30.02S
6HR MIN TEMP:  71; 6HR MAX TEMP:  88; 6HR PCP:  0.01;

PENDLETON      CLOUDY    66  60  81 SE10      30.02S
6HR MIN TEMP:  65; 6HR MAX TEMP:  80; 6HR PCP:  0.13;

JOHN DAY       CLOUDY    64  57  78 E6        30.15R
MEACHAM        LGT RAIN  58  57  97 CALM      30.15F
6HR MIN TEMP:  58; 6HR MAX TEMP:  65; 6HR PCP:  0.35;

LA GRANDE      CLOUDY    64  48  55 W7        30.15R
6HR MIN TEMP:  63; 6HR MAX TEMP:  81; 6HR PCP:  0.01;

BAKER CITY     CLOUDY    65  52  62 W13       30.17R
6HR MIN TEMP:  65; 6HR MAX TEMP:  89; 6HR PCP: TRACE;

BURNS          MOCLDY    63  50  62 CALM      30.12S
6HR MIN TEMP:  62; 6HR MAX TEMP:  85; 6HR PCP: TRACE;

ROME             N/A     74  44  34 SW13      30.10R
6HR MIN TEMP:  73; 6HR MAX TEMP:  89;

ONTARIO        CLOUDY    79  49  34 W16       30.02R
6HR MIN TEMP:  73; 6HR MAX TEMP:  93; 6HR PCP: TRACE;

$$


USA.gov is the U.S. government's official web portal to all federal, state and local government web resources and services.